| time (UTC) | temp F | wind direction | speed knots | gust knots | rain 1hr in | rain 24hr in | rain mn in | humidity % | barometer mb |
| 20260506014049 | 57 | 217 | 1.7 | 0.0 | 0.00 | 0.00 | 0.00 | 84 | 1013.0 |
| 20260506013553 | 57 | 182 | 1.7 | 0.0 | 0.00 | 0.00 | 0.00 | 83 | 1013.0 |
| 20260506013103 | 57 | 180 | 2.6 | 0.0 | 0.00 | 0.00 | 0.00 | 82 | 1013.0 |
| 20260506012550 | 58 | 221 | 2.6 | 0.0 | 0.00 | 0.00 | 0.00 | 81 | 1013.0 |
| 20260506012050 | 58 | 211 | 2.6 | 0.0 | 0.00 | 0.00 | 0.00 | 80 | 1013.0 |
| 20260506011604 | 59 | 215 | 2.6 | 0.0 | 0.00 | 0.00 | 0.00 | 79 | 1013.0 |
| 20260506011049 | 59 | 171 | 3.5 | 0.0 | 0.00 | 0.00 | 0.00 | 79 | 1013.0 |
| 20260506010549 | 59 | 213 | 2.6 | 0.0 | 0.00 | 0.00 | 0.00 | 76 | 1013.0 |
| 20260506010050 | 59 | 218 | 2.6 | 0.0 | 0.00 | 0.00 | 0.00 | 77 | 1013.0 |
| 20260506005549 | 59 | 187 | 3.5 | 0.0 | 0.00 | 0.00 | 0.00 | 76 | 1013.0 |
| 20260506005051 | 59 | 196 | 3.5 | 0.0 | 0.00 | 0.00 | 0.00 | 77 | 1013.0 |
| 20260506004548 | 58 | 205 | 3.5 | 0.0 | 0.00 | 0.00 | 0.00 | 78 | 1013.0 |
| 20260506004048 | 58 | 235 | 3.5 | 0.0 | 0.00 | 0.00 | 0.00 | 79 | 1013.1 |
| 20260506003548 | 58 | 226 | 3.5 | 0.0 | 0.00 | 0.00 | 0.00 | 79 | 1013.1 |
| 20260506003048 | 58 | 197 | 3.5 | 0.0 | 0.00 | 0.00 | 0.00 | 80 | 1013.1 |
| 20260506002547 | 58 | 255 | 3.5 | 0.0 | 0.00 | 0.00 | 0.00 | 80 | 1013.0 |
| 20260506002049 | 57 | 155 | 3.5 | 0.0 | 0.00 | 0.00 | 0.00 | 81 | 1013.0 |
| 20260506001548 | 57 | 175 | 3.5 | 0.0 | 0.00 | 0.00 | 0.00 | 82 | 1013.0 |
| 20260506001048 | 57 | 188 | 4.3 | 0.0 | 0.00 | 0.00 | 0.00 | 81 | 1013.0 |
| 20260506000548 | 57 | 181 | 4.3 | 0.0 | 0.00 | 0.00 | 0.00 | 80 | 1013.0 |
| 20260506000050 | 57 | 190 | 4.3 | 0.0 | 0.00 | 0.00 | 0.00 | 78 | 1013.0 |
| 20260505235547 | 58 | 175 | 4.3 | 0.0 | 0.00 | 0.00 | 0.00 | 78 | 1013.1 |
| 20260505235047 | 58 | 219 | 3.5 | 0.0 | 0.00 | 0.00 | 0.00 | 79 | 1013.1 |
| 20260505234546 | 58 | 207 | 4.3 | 0.0 | 0.00 | 0.00 | 0.00 | 79 | 1013.1 |
| 20260505234045 | 58 | 210 | 4.3 | 0.0 | 0.00 | 0.00 | 0.00 | 78 | 1013.0 |
| 20260505233545 | 59 | 186 | 4.3 | 0.0 | 0.00 | 0.00 | 0.00 | 76 | 1013.0 |
| 20260505233045 | 59 | 190 | 5.2 | 0.0 | 0.00 | 0.00 | 0.00 | 76 | 1013.0 |
| 20260505232545 | 59 | 186 | 4.3 | 0.0 | 0.00 | 0.00 | 0.00 | 75 | 1012.9 |
| 20260505232049 | 60 | 187 | 3.5 | 0.0 | 0.00 | 0.00 | 0.00 | 76 | 1012.9 |
| 20260505231546 | 60 | 182 | 4.3 | 0.0 | 0.00 | 0.00 | 0.00 | 77 | 1012.9 |
| 20260505231049 | 60 | 124 | 4.3 | 0.0 | 0.00 | 0.00 | 0.00 | 77 | 1012.9 |
| 20260505230545 | 60 | 180 | 3.5 | 0.0 | 0.00 | 0.00 | 0.00 | 76 | 1012.9 |
| 20260505230056 | 60 | 213 | 3.5 | 0.0 | 0.00 | 0.00 | 0.00 | 75 | 1012.9 |
| 20260505225546 | 59 | 237 | 4.3 | 0.0 | 0.00 | 0.00 | 0.00 | 77 | 1013.0 |
| 20260505225044 | 59 | 204 | 4.3 | 0.0 | 0.00 | 0.00 | 0.00 | 74 | 1013.0 |
| 20260505224547 | 60 | 258 | 4.3 | 0.0 | 0.00 | 0.00 | 0.00 | 72 | 1013.0 |
| 20260505224046 | 60 | 169 | 4.3 | 0.0 | 0.00 | 0.00 | 0.00 | 72 | 1013.2 |
| 20260505223543 | 60 | 229 | 4.3 | 0.0 | 0.00 | 0.00 | 0.00 | 72 | 1013.2 |
| 20260505223055 | 60 | 173 | 5.2 | 0.0 | 0.00 | 0.00 | 0.00 | 71 | 1013.2 |
| 20260505222543 | 60 | 242 | 4.3 | 0.0 | 0.00 | 0.00 | 0.00 | 68 | 1013.3 |
| 20260505222047 | 60 | 237 | 4.3 | 0.0 | 0.00 | 0.00 | 0.00 | 67 | 1013.3 |
| 20260505221544 | 60 | 205 | 4.3 | 0.0 | 0.00 | 0.00 | 0.00 | 67 | 1013.3 |
| 20260505221047 | 60 | 181 | 4.3 | 0.0 | 0.00 | 0.00 | 0.00 | 66 | 1013.4 |
| 20260505220542 | 60 | 181 | 4.3 | 0.0 | 0.00 | 0.00 | 0.00 | 67 | 1013.4 |
| 20260505220045 | 60 | 157 | 4.3 | 0.0 | 0.00 | 0.00 | 0.00 | 66 | 1013.4 |
| 20260505215542 | 60 | 211 | 4.3 | 0.0 | 0.00 | 0.00 | 0.00 | 67 | 1013.4 |
| 20260505215042 | 61 | 153 | 3.5 | 0.0 | 0.00 | 0.00 | 0.00 | 69 | 1013.4 |
| 20260505214542 | 61 | 119 | 3.5 | 0.0 | 0.00 | 0.00 | 0.00 | 70 | 1013.4 |
| 20260505214042 | 60 | 173 | 4.3 | 0.0 | 0.00 | 0.00 | 0.00 | 68 | 1013.5 |
| 20260505213545 | 61 | 185 | 4.3 | 0.0 | 0.00 | 0.00 | 0.00 | 68 | 1013.5 |
| 20260505213053 | 61 | 188 | 3.5 | 0.0 | 0.00 | 0.00 | 0.00 | 67 | 1013.5 |
| 20260505212541 | 61 | 212 | 2.6 | 0.0 | 0.00 | 0.00 | 0.00 | 70 | 1013.6 |
| 20260505212041 | 60 | 223 | 3.5 | 0.0 | 0.00 | 0.00 | 0.00 | 69 | 1013.6 |
| 20260505211541 | 60 | 208 | 4.3 | 0.0 | 0.00 | 0.00 | 0.00 | 70 | 1013.6 |
| 20260505211041 | 60 | 155 | 4.3 | 0.0 | 0.00 | 0.00 | 0.00 | 69 | 1013.5 |
| 20260505210540 | 60 | 191 | 4.3 | 0.0 | 0.00 | 0.00 | 0.00 | 66 | 1013.5 |
| 20260505210040 | 61 | 163 | 3.5 | 0.0 | 0.00 | 0.00 | 0.00 | 67 | 1013.5 |
| 20260505205540 | 60 | 200 | 3.5 | 0.0 | 0.00 | 0.00 | 0.00 | 66 | 1013.5 |
| 20260505205039 | 60 | 173 | 3.5 | 0.0 | 0.00 | 0.00 | 0.00 | 67 | 1013.5 |
| 20260505204540 | 60 | 160 | 4.3 | 0.0 | 0.00 | 0.00 | 0.00 | 67 | 1013.5 |
| 20260505204039 | 60 | 186 | 4.3 | 0.0 | 0.00 | 0.00 | 0.00 | 70 | 1013.5 |
| 20260505203539 | 60 | 153 | 4.3 | 0.0 | 0.00 | 0.00 | 0.00 | 67 | 1013.5 |
| 20260505203046 | 60 | 202 | 3.5 | 0.0 | 0.00 | 0.00 | 0.00 | 68 | 1013.5 |
| 20260505202539 | 60 | 192 | 3.5 | 0.0 | 0.00 | 0.00 | 0.00 | 67 | 1013.5 |
| 20260505202039 | 60 | 241 | 4.3 | 0.0 | 0.00 | 0.00 | 0.00 | 69 | 1013.5 |
| 20260505201541 | 60 | 163 | 4.3 | 0.0 | 0.00 | 0.00 | 0.00 | 67 | 1013.5 |
| 20260505201039 | 60 | 207 | 3.5 | 0.0 | 0.00 | 0.00 | 0.00 | 68 | 1013.5 |
| 20260505200539 | 60 | 210 | 4.3 | 0.0 | 0.00 | 0.00 | 0.00 | 68 | 1013.5 |
| 20260505200037 | 60 | 163 | 4.3 | 0.0 | 0.00 | 0.00 | 0.00 | 65 | 1013.5 |
| 20260505195540 | 60 | 226 | 4.3 | 0.0 | 0.00 | 0.00 | 0.00 | 68 | 1013.5 |
| 20260505195038 | 60 | 231 | 3.5 | 0.0 | 0.00 | 0.00 | 0.00 | 67 | 1013.5 |
| 20260505194536 | 60 | 259 | 3.5 | 0.0 | 0.00 | 0.00 | 0.00 | 69 | 1013.5 |
| 20260505194036 | 60 | 193 | 3.5 | 0.0 | 0.00 | 0.00 | 0.00 | 68 | 1013.7 |
| 20260505193536 | 60 | 360 | 3.5 | 0.0 | 0.00 | 0.00 | 0.00 | 69 | 1013.7 |
| 20260505193034 | 60 | 233 | 4.3 | 0.0 | 0.00 | 0.00 | 0.00 | 69 | 1013.7 |
| 20260505192534 | 60 | 184 | 4.3 | 0.0 | 0.00 | 0.00 | 0.00 | 72 | 1013.8 |
| 20260505192033 | 60 | 196 | 3.5 | 0.0 | 0.00 | 0.00 | 0.00 | 72 | 1013.8 |
| 20260505191533 | 59 | 187 | 3.5 | 0.0 | 0.00 | 0.00 | 0.00 | 74 | 1013.8 |
| 20260505191033 | 59 | 198 | 4.3 | 0.0 | 0.00 | 0.00 | 0.00 | 75 | 1013.9 |
| 20260505190534 | 59 | 213 | 4.3 | 0.0 | 0.00 | 0.00 | 0.00 | 76 | 1013.9 |
| 20260505190030 | 59 | 144 | 4.3 | 0.0 | 0.00 | 0.00 | 0.00 | 75 | 1013.9 |
| 20260505185531 | 59 | 208 | 4.3 | 0.0 | 0.00 | 0.00 | 0.00 | 75 | 1013.9 |
| 20260505185031 | 59 | 182 | 4.3 | 0.0 | 0.00 | 0.00 | 0.00 | 75 | 1013.9 |
| 20260505184530 | 59 | 163 | 5.2 | 0.0 | 0.00 | 0.00 | 0.00 | 73 | 1013.9 |
| 20260505184029 | 58 | 261 | 4.3 | 0.0 | 0.00 | 0.00 | 0.00 | 70 | 1013.9 |
| 20260505183528 | 58 | 201 | 4.3 | 0.0 | 0.00 | 0.00 | 0.00 | 76 | 1013.9 |
| 20260505183028 | 58 | 211 | 4.3 | 0.0 | 0.00 | 0.00 | 0.00 | 75 | 1013.9 |
| 20260505182527 | 58 | 205 | 3.5 | 0.0 | 0.00 | 0.00 | 0.00 | 76 | 1013.7 |
| 20260505182033 | 58 | 266 | 3.5 | 0.0 | 0.00 | 0.00 | 0.00 | 73 | 1013.7 |
| 20260505181527 | 58 | 217 | 3.5 | 0.0 | 0.00 | 0.00 | 0.00 | 72 | 1013.7 |
| 20260505181027 | 58 | 171 | 3.5 | 0.0 | 0.00 | 0.00 | 0.00 | 74 | 1013.7 |
| 20260505180525 | 58 | 281 | 3.5 | 0.0 | 0.00 | 0.00 | 0.00 | 74 | 1013.7 |
| 20260505180024 | 57 | 224 | 3.5 | 0.0 | 0.00 | 0.00 | 0.00 | 78 | 1013.7 |
| 20260505175523 | 57 | 206 | 3.5 | 0.0 | 0.00 | 0.00 | 0.00 | 79 | 1013.6 |
| 20260505175023 | 57 | 158 | 3.5 | 0.0 | 0.00 | 0.00 | 0.00 | 80 | 1013.6 |
| 20260505174522 | 57 | 177 | 2.6 | 0.0 | 0.00 | 0.00 | 0.00 | 80 | 1013.6 |
| 20260505174022 | 57 | 263 | 2.6 | 0.0 | 0.00 | 0.00 | 0.00 | 81 | 1013.5 |
| 20260505173520 | 57 | 148 | 2.6 | 0.0 | 0.00 | 0.00 | 0.00 | 80 | 1013.5 |
| 20260505173036 | 57 | 292 | 2.6 | 0.0 | 0.00 | 0.00 | 0.00 | 82 | 1013.5 |
| 20260505172520 | 57 | 244 | 2.6 | 0.0 | 0.00 | 0.00 | 0.00 | 81 | 1013.3 |
| 20260505172020 | 57 | 184 | 2.6 | 0.0 | 0.00 | 0.00 | 0.00 | 80 | 1013.3 |
| 20260505171520 | 57 | 190 | 1.7 | 0.0 | 0.00 | 0.00 | 0.00 | 81 | 1013.3 |
| 20260505171018 | 56 | 176 | 2.6 | 0.0 | 0.00 | 0.00 | 0.00 | 84 | 1013.3 |
| 20260505170517 | 56 | 270 | 3.5 | 0.0 | 0.00 | 0.00 | 0.00 | 84 | 1013.3 |
| 20260505170023 | 55 | 303 | 3.5 | 0.0 | 0.00 | 0.00 | 0.00 | 86 | 1013.3 |
| 20260505165516 | 55 | 233 | 3.5 | 0.0 | 0.00 | 0.00 | 0.00 | 86 | 1013.1 |
| 20260505165016 | 56 | 306 | 2.6 | 0.0 | 0.00 | 0.00 | 0.00 | 86 | 1013.1 |
| 20260505164535 | 55 | 275 | 2.6 | 0.0 | 0.00 | 0.00 | 0.00 | 85 | 1013.1 |
| 20260505164015 | 55 | 248 | 2.6 | 0.0 | 0.00 | 0.00 | 0.00 | 87 | 1013.1 |
| 20260505163514 | 55 | 258 | 3.5 | 0.0 | 0.00 | 0.00 | 0.00 | 85 | 1013.1 |
| 20260505163015 | 55 | 217 | 3.5 | 0.0 | 0.00 | 0.00 | 0.00 | 85 | 1013.1 |
| 20260505162514 | 55 | 281 | 2.6 | 0.0 | 0.00 | 0.00 | 0.00 | 84 | 1012.7 |
| 20260505162014 | 55 | 213 | 2.6 | 0.0 | 0.00 | 0.00 | 0.00 | 84 | 1012.7 |
| 20260505161513 | 55 | 184 | 2.6 | 0.0 | 0.00 | 0.00 | 0.00 | 86 | 1012.7 |
| 20260505161014 | 55 | 207 | 2.6 | 0.0 | 0.00 | 0.00 | 0.00 | 87 | 1012.6 |
| 20260505160511 | 55 | 252 | 1.7 | 0.0 | 0.00 | 0.00 | 0.00 | 88 | 1012.6 |
| 20260505153010 | 53 | 284 | 3.5 | 0.0 | 0.00 | 0.00 | 0.00 | 90 | 1012.7 |
| 20260505152505 | 53 | 274 | 3.5 | 0.0 | 0.00 | 0.00 | 0.00 | 91 | 1012.7 |
| 20260505152007 | 53 | 254 | 4.3 | 0.0 | 0.00 | 0.00 | 0.00 | 91 | 1012.7 |
| 20260505151504 | 53 | 243 | 4.3 | 0.0 | 0.00 | 0.00 | 0.00 | 91 | 1012.7 |
| 20260505151004 | 53 | 279 | 3.5 | 0.0 | 0.00 | 0.00 | 0.00 | 91 | 1012.6 |
| 20260505150504 | 52 | 225 | 2.6 | 0.0 | 0.00 | 0.00 | 0.00 | 92 | 1012.6 |
| 20260505140502 | 51 | 309 | 2.6 | 0.0 | 0.00 | 0.00 | 0.00 | 93 | 1012.2 |
| 20260505124558 | 51 | 252 | 2.6 | 0.0 | 0.00 | 0.00 | 0.00 | 93 | 1012.0 |
| 20260505124058 | 51 | 297 | 2.6 | 0.0 | 0.00 | 0.00 | 0.00 | 93 | 1012.0 |
| 20260505123556 | 50 | 329 | 2.6 | 0.0 | 0.00 | 0.00 | 0.00 | 93 | 1012.0 |
| 20260505123105 | 51 | 239 | 3.5 | 0.0 | 0.00 | 0.00 | 0.00 | 93 | 1012.0 |
| 20260505122559 | 51 | 246 | 3.5 | 0.0 | 0.00 | 0.00 | 0.00 | 94 | 1012.0 |
| 20260505122056 | 51 | 285 | 3.5 | 0.0 | 0.00 | 0.00 | 0.00 | 94 | 1012.0 |
| 20260505121556 | 50 | 257 | 3.5 | 0.0 | 0.00 | 0.00 | 0.00 | 94 | 1012.0 |
| 20260505121056 | 50 | 271 | 3.5 | 0.0 | 0.00 | 0.00 | 0.00 | 94 | 1012.0 |
| 20260505120556 | 50 | 270 | 3.5 | 0.0 | 0.00 | 0.00 | 0.00 | 94 | 1012.0 |
| 20260505120057 | 50 | 265 | 3.5 | 0.0 | 0.00 | 0.00 | 0.00 | 94 | 1012.0 |
| 20260505115558 | 50 | 254 | 2.6 | 0.0 | 0.00 | 0.00 | 0.00 | 94 | 1011.9 |
| 20260505115055 | 51 | 271 | 3.5 | 0.0 | 0.00 | 0.00 | 0.00 | 94 | 1011.9 |
| 20260505114554 | 51 | 264 | 3.5 | 0.0 | 0.00 | 0.00 | 0.00 | 94 | 1011.9 |
| 20260505114059 | 51 | 251 | 3.5 | 0.0 | 0.00 | 0.00 | 0.00 | 94 | 1011.8 |
| 20260505113556 | 51 | 267 | 2.6 | 0.0 | 0.00 | 0.00 | 0.00 | 94 | 1011.8 |
| 20260505113059 | 51 | 318 | 2.6 | 0.0 | 0.00 | 0.00 | 0.00 | 94 | 1011.8 |
| 20260505112553 | 51 | 300 | 2.6 | 0.0 | 0.00 | 0.00 | 0.00 | 94 | 1011.9 |
| 20260505112053 | 51 | 300 | 2.6 | 0.0 | 0.00 | 0.00 | 0.00 | 94 | 1011.9 |
| 20260505111557 | 51 | 304 | 3.5 | 0.0 | 0.00 | 0.00 | 0.00 | 94 | 1011.9 |
| 20260505111053 | 51 | 292 | 3.5 | 0.0 | 0.00 | 0.00 | 0.00 | 93 | 1011.9 |
| 20260505110552 | 51 | 231 | 2.6 | 0.0 | 0.00 | 0.00 | 0.00 | 93 | 1011.9 |
| 20260505102046 | 51 | 296 | 3.5 | 0.0 | 0.00 | 0.00 | 0.00 | 94 | 1011.9 |
| 20260505101546 | 51 | 280 | 2.6 | 0.0 | 0.00 | 0.00 | 0.00 | 94 | 1011.9 |
| 20260505101048 | 51 | 319 | 1.7 | 0.0 | 0.00 | 0.00 | 0.00 | 94 | 1012.0 |
| 20260505100545 | 51 | 321 | 2.6 | 0.0 | 0.00 | 0.00 | 0.00 | 94 | 1012.0 |
| 20260505100050 | 51 | 332 | 2.6 | 0.0 | 0.00 | 0.00 | 0.00 | 94 | 1012.0 |
| 20260505095546 | 51 | 286 | 2.6 | 0.0 | 0.00 | 0.00 | 0.00 | 94 | 1012.2 |
| 20260505095042 | 51 | 291 | 2.6 | 0.0 | 0.00 | 0.00 | 0.00 | 94 | 1012.2 |
| 20260505094543 | 51 | 273 | 3.5 | 0.0 | 0.00 | 0.00 | 0.00 | 94 | 1012.2 |
| 20260505094042 | 51 | 274 | 2.6 | 0.0 | 0.00 | 0.00 | 0.00 | 94 | 1012.3 |
| 20260505093543 | 51 | 250 | 3.5 | 0.0 | 0.00 | 0.00 | 0.00 | 94 | 1012.3 |
| 20260505093043 | 51 | 298 | 3.5 | 0.0 | 0.00 | 0.00 | 0.00 | 94 | 1012.3 |
| 20260505092542 | 51 | 324 | 4.3 | 0.0 | 0.00 | 0.00 | 0.00 | 94 | 1012.4 |
| 20260505092040 | 51 | 311 | 4.3 | 0.0 | 0.00 | 0.00 | 0.00 | 94 | 1012.4 |
| 20260505091552 | 51 | 295 | 3.5 | 0.0 | 0.00 | 0.00 | 0.00 | 94 | 1012.4 |
| 20260505091042 | 52 | 304 | 3.5 | 0.0 | 0.00 | 0.00 | 0.00 | 94 | 1012.6 |
| 20260505090542 | 52 | 298 | 2.6 | 0.0 | 0.00 | 0.00 | 0.00 | 94 | 1012.6 |
| 20260505090051 | 52 | 304 | 1.7 | 0.0 | 0.00 | 0.00 | 0.00 | 94 | 1012.6 |
| 20260505085538 | 52 | 267 | 1.7 | 0.0 | 0.00 | 0.00 | 0.00 | 94 | 1012.6 |
| 20260505085037 | 52 | 280 | 1.7 | 0.0 | 0.00 | 0.00 | 0.00 | 94 | 1012.6 |
| 20260505084538 | 52 | 302 | 1.7 | 0.0 | 0.00 | 0.00 | 0.00 | 94 | 1012.6 |
| 20260505084036 | 52 | 308 | 1.7 | 0.0 | 0.00 | 0.00 | 0.00 | 94 | 1012.9 |
| 20260505083537 | 52 | 281 | 1.7 | 0.0 | 0.00 | 0.00 | 0.00 | 94 | 1012.9 |
| 20260505083042 | 52 | 286 | 1.7 | 0.0 | 0.00 | 0.00 | 0.00 | 94 | 1012.9 |
| 20260505082535 | 52 | 267 | 1.7 | 0.0 | 0.00 | 0.00 | 0.00 | 94 | 1012.9 |
| 20260505082035 | 52 | 291 | 1.7 | 0.0 | 0.00 | 0.00 | 0.00 | 94 | 1012.9 |
| 20260505081550 | 52 | 288 | 1.7 | 0.0 | 0.00 | 0.00 | 0.00 | 94 | 1012.9 |
| 20260505081035 | 52 | 295 | 1.7 | 0.0 | 0.00 | 0.00 | 0.00 | 94 | 1012.8 |
| 20260505080539 | 52 | 317 | 1.7 | 0.0 | 0.00 | 0.00 | 0.00 | 94 | 1012.8 |
| 20260505080042 | 52 | 288 | 1.7 | 0.0 | 0.00 | 0.00 | 0.00 | 94 | 1012.8 |
| 20260505075534 | 53 | 272 | 0.9 | 0.0 | 0.00 | 0.00 | 0.00 | 94 | 1012.9 |
| 20260505075033 | 53 | 238 | 0.9 | 0.0 | 0.00 | 0.00 | 0.00 | 94 | 1012.9 |
| 20260505074538 | 53 | 188 | 0.9 | 0.0 | 0.00 | 0.00 | 0.00 | 94 | 1012.9 |
| 20260505074034 | 53 | 188 | 0.9 | 0.0 | 0.00 | 0.00 | 0.00 | 94 | 1013.0 |
| 20260505073534 | 53 | 227 | 0.9 | 0.0 | 0.00 | 0.00 | 0.00 | 94 | 1013.0 |
| 20260505073032 | 52 | 229 | 1.7 | 0.0 | 0.00 | 0.00 | 0.00 | 94 | 1013.0 |
| 20260505072531 | 52 | 291 | 1.7 | 0.0 | 0.00 | 0.00 | 0.00 | 94 | 1013.0 |
| 20260505072031 | 52 | 306 | 1.7 | 0.0 | 0.00 | 0.00 | 0.00 | 94 | 1013.0 |
| 20260505071531 | 52 | 291 | 1.7 | 0.0 | 0.00 | 0.00 | 0.00 | 94 | 1013.0 |
| 20260505071031 | 52 | 296 | 1.7 | 0.0 | 0.00 | 0.00 | 0.00 | 94 | 1013.1 |
| 20260505070531 | 52 | 280 | 1.7 | 0.0 | 0.00 | 0.00 | 0.00 | 94 | 1013.1 |
| 20260505070031 | 52 | 297 | 1.7 | 0.0 | 0.00 | 0.00 | 0.01 | 94 | 1013.1 |
| 20260505065530 | 52 | 281 | 1.7 | 0.0 | 0.00 | 0.00 | 0.01 | 94 | 1013.1 |
| 20260505065030 | 52 | 265 | 1.7 | 0.0 | 0.00 | 0.00 | 0.01 | 94 | 1013.1 |
| 20260505064530 | 52 | 277 | 1.7 | 0.0 | 0.00 | 0.00 | 0.01 | 94 | 1013.1 |
| 20260505064029 | 52 | 284 | 1.7 | 0.0 | 0.00 | 0.00 | 0.01 | 94 | 1013.1 |
| 20260505063529 | 52 | 290 | 0.9 | 0.0 | 0.00 | 0.00 | 0.00 | 94 | 1013.1 |
| 20260505063035 | 52 | 189 | 0.0 | 0.0 | 0.00 | 0.00 | 0.00 | 94 | 1013.1 |
| 20260505062529 | 52 | 185 | 0.0 | 0.0 | 0.00 | 0.00 | 0.00 | 94 | 1013.2 |
| 20260505062029 | 52 | 171 | 0.0 | 0.0 | 0.00 | 0.00 | 0.00 | 94 | 1013.2 |
| 20260505061533 | 52 | 171 | 0.0 | 0.0 | 0.00 | 0.00 | 0.00 | 94 | 1013.2 |
| 20260505061029 | 52 | 216 | 0.0 | 0.0 | 0.00 | 0.00 | 0.00 | 94 | 1013.3 |
| 20260505060528 | 52 | 216 | 0.9 | 0.0 | 0.00 | 0.00 | 0.00 | 94 | 1013.3 |
| 20260505060030 | 52 | 158 | 1.7 | 0.0 | 0.00 | 0.00 | 0.00 | 94 | 1013.3 |
| 20260505055527 | 52 | 277 | 2.6 | 0.0 | 0.00 | 0.00 | 0.00 | 94 | 1013.3 |
| 20260505055029 | 52 | 258 | 2.6 | 0.0 | 0.00 | 0.00 | 0.00 | 94 | 1013.3 |
| 20260505054530 | 52 | 277 | 2.6 | 0.0 | 0.00 | 0.00 | 0.00 | 94 | 1013.3 |
| 20260505054027 | 52 | 285 | 1.7 | 0.0 | 0.00 | 0.00 | 0.00 | 94 | 1013.4 |
| 20260505053527 | 53 | 290 | 0.9 | 0.0 | 0.00 | 0.00 | 0.00 | 94 | 1013.4 |
| 20260505053026 | 53 | 184 | 0.9 | 0.0 | 0.00 | 0.00 | 0.00 | 94 | 1013.4 |
| 20260505052526 | 53 | 271 | 0.9 | 0.0 | 0.00 | 0.00 | 0.00 | 94 | 1013.4 |
| 20260505052027 | 53 | 292 | 0.9 | 0.0 | 0.00 | 0.00 | 0.00 | 94 | 1013.4 |
| 20260505051529 | 53 | 202 | 0.9 | 0.0 | 0.00 | 0.00 | 0.00 | 94 | 1013.4 |
| 20260505051029 | 53 | 205 | 0.9 | 0.0 | 0.00 | 0.00 | 0.00 | 94 | 1013.5 |
| 20260505050527 | 53 | 227 | 0.9 | 0.0 | 0.00 | 0.00 | 0.00 | 94 | 1013.5 |
| 20260505041525 | 52 | 201 | 0.9 | 0.0 | 0.00 | 0.00 | 0.00 | 94 | 1013.6 |
| 20260505041025 | 52 | 212 | 0.9 | 0.0 | 0.00 | 0.00 | 0.00 | 94 | 1013.7 |
| 20260505040525 | 52 | 175 | 0.9 | 0.0 | 0.00 | 0.00 | 0.00 | 94 | 1013.7 |
| 20260505040025 | 52 | 165 | 0.9 | 0.0 | 0.00 | 0.00 | 0.00 | 94 | 1013.7 |
| 20260505035523 | 52 | 174 | 0.9 | 0.0 | 0.00 | 0.00 | 0.00 | 94 | 1013.6 |
| 20260505035023 | 52 | 195 | 0.9 | 0.0 | 0.00 | 0.00 | 0.00 | 94 | 1013.6 |
| 20260505034523 | 52 | 196 | 1.7 | 0.0 | 0.00 | 0.00 | 0.00 | 94 | 1013.6 |
| 20260505034024 | 52 | 165 | 0.9 | 0.0 | 0.00 | 0.00 | 0.00 | 94 | 1013.6 |
| 20260505033526 | 52 | 192 | 0.9 | 0.0 | 0.00 | 0.00 | 0.00 | 94 | 1013.6 |
| 20260505033033 | 52 | 151 | 0.9 | 0.0 | 0.00 | 0.00 | 0.00 | 94 | 1013.6 |
| 20260505032524 | 52 | 201 | 1.7 | 0.0 | 0.00 | 0.00 | 0.00 | 94 | 1013.5 |
| 20260505032024 | 52 | 194 | 1.7 | 0.0 | 0.00 | 0.00 | 0.00 | 94 | 1013.5 |
| 20260505031523 | 52 | 178 | 2.6 | 0.0 | 0.00 | 0.00 | 0.00 | 94 | 1013.5 |
| 20260505031023 | 53 | 213 | 2.6 | 0.0 | 0.00 | 0.00 | 0.00 | 94 | 1013.3 |
| 20260505030523 | 53 | 193 | 2.6 | 0.0 | 0.00 | 0.00 | 0.00 | 94 | 1013.3 |
| 20260505030023 | 53 | 176 | 2.6 | 0.0 | 0.00 | 0.00 | 0.00 | 94 | 1013.3 |
| 20260505025527 | 53 | 184 | 2.6 | 0.0 | 0.00 | 0.00 | 0.00 | 93 | 1013.4 |
| 20260505025021 | 53 | 157 | 2.6 | 0.0 | 0.00 | 0.00 | 0.00 | 93 | 1013.4 |
| 20260505024546 | 53 | 176 | 3.5 | 0.0 | 0.00 | 0.00 | 0.00 | 93 | 1013.4 |
| 20260505024021 | 53 | 203 | 3.5 | 0.0 | 0.00 | 0.00 | 0.00 | 93 | 1013.4 |
| 20260505023521 | 53 | 219 | 3.5 | 0.0 | 0.00 | 0.00 | 0.00 | 93 | 1013.4 |
| 20260505023023 | 53 | 185 | 3.5 | 0.0 | 0.00 | 0.00 | 0.00 | 93 | 1013.4 |
| 20260505022522 | 53 | 196 | 3.5 | 0.0 | 0.00 | 0.00 | 0.00 | 93 | 1013.4 |
| 20260505022021 | 53 | 151 | 3.5 | 0.0 | 0.00 | 0.00 | 0.00 | 92 | 1013.4 |
| 20260505021541 | 54 | 205 | 4.3 | 0.0 | 0.00 | 0.00 | 0.00 | 92 | 1013.4 |
| 20260505021020 | 54 | 161 | 4.3 | 0.0 | 0.00 | 0.00 | 0.00 | 91 | 1013.5 |
| 20260505020521 | 54 | 185 | 3.5 | 0.0 | 0.00 | 0.00 | 0.00 | 91 | 1013.5 |
| 20260505020021 | 54 | 166 | 3.5 | 0.0 | 0.00 | 0.00 | 0.00 | 90 | 1013.5 |
| 20260505015523 | 54 | 167 | 3.5 | 0.0 | 0.00 | 0.00 | 0.00 | 90 | 1013.4 |
| 20260505015020 | 55 | 150 | 3.5 | 0.0 | 0.00 | 0.00 | 0.00 | 89 | 1013.4 |
| 20260505014525 | 55 | 180 | 3.5 | 0.0 | 0.00 | 0.00 | 0.00 | 88 | 1013.4 |